sat.trackr.live / text

‹ back to catalog

STARLINK-37173

NORAD 68536 · 2026-068AE

PAYLOAD ACTIVE UNKNOWN

§ Identity

Operator
Country
US
Launch date
2026-03-30
Launch site
AFETR
Launch vehicle
Mass (kg)
RCS (m²)

Purposes: comms

External: N2YO · Heavens-Above · Gunter

§ Orbital elements

Epoch: 2026-05-25T03:04:01.664256Z

Period
93.37 min
Inclination
53.1576°
Eccentricity
0.0001050
Mean motion
15.42170416 rev/d
Perigee alt
439.0 km
Apogee alt
440.4 km
Semi-major
6,817.8 km
B*
5.3699e-4
RAAN
133.8305°
Arg perigee
88.9602°
Mean anomaly
271.1524°
Rev number
865

§ Raw data

STARLINK-371731 68536U 26068AE  26145.12779704  .00023034  00000+0  53699-3 0  99912 68536  53.1576 133.8305 0001050  88.9602 271.1524 15.42170416  8651

JSON: /api/v1/satellites/68536 · /tle

For live sub-satellite position, see the globe view (requires WebGL).

§ Visibility from observer

Set your observer location to see the next 7 days of passes ≥ 10°. The values pass through the URL so the page stays shareable.

No JS? Fill the form by hand. The geolocation button needs JavaScript.